Delta Virtual Airport Information Service

Anchorage Ted Stevens International Airport

ICAO: PANC Country: United States
Latitude: 61.1744 Longitude: -149.996
Latest Arrival : DAL1127 (B) (KSLC-PANC) Latest Departure : DAL2098 (PANC-KMSP)


WX CaptureLIVE
Data provided by noaa.gov | Fetched at 23:08:34

METAR : PANC 120353Z 15018G26KT 10SM FEW055 SCT075 BKN200 09/01 A3002 RMK AO2 PK WND 16029/0333 SLP165 SH DSNT SW AND NW-N T00890006

TAF : PANC 120005Z 1200/1306 17010G20KT P6SM -SHRA SCT040 BKN050 BKN100 FM120300 16015G25KT P6SM -SHRA SCT025 OVC050 FM120900 17010G18KT P6SM SCT025 OVC050 FM121500 17005KT P6SM SCT025 OVC050 FM121900 VRB04KT P6SM SCT050 SCT120


Runway Data for PANC
Data provided by openaviationdata.com

Runway ID Mag Var Hdg Length Elevation Surface ILS Freq ILS Id ILS Slope
07L 23 66° 10587 ft 152 ft Asphalt 109.9 ITGN 3
07R 23 66° 10886 ft 152 ft Asphalt 111.3 IANC 3
15 23 141° 11591 ft 152 ft Asphalt 111.75 IBSC 3
25L 23 246° 10886 ft 152 ft Asphalt -- -- --
25R 23 246° 10587 ft 152 ft Asphalt -- -- --
33 23 321° 11591 ft 152 ft Asphalt -- -- --

Anchorage Ted Stevens International Airport, United States
Use only for reference purposes



Not for navigational purposes.